Year,Month,Day,Hour,Minute,Value (Times are PST for temperature in C)
2006,07,19,00,00,13.90
2006,07,19,00,01,13.90
2006,07,19,00,02,13.90
2006,07,19,00,03,13.80
2006,07,19,00,04,13.80
2006,07,19,00,05,13.70
2006,07,19,00,06,13.60
2006,07,19,00,07,13.50
2006,07,19,00,08,13.50
2006,07,19,00,09,13.40
2006,07,19,00,10,13.40
2006,07,19,00,11,13.30
2006,07,19,00,12,13.30
2006,07,19,00,13,13.30
2006,07,19,00,14,13.20
2006,07,19,00,15,13.10
2006,07,19,00,16,13.10
2006,07,19,00,17,13.00
2006,07,19,00,18,13.00
2006,07,19,00,19,12.90
2006,07,19,00,20,12.80
2006,07,19,00,21,12.70
2006,07,19,00,22,12.60
2006,07,19,00,23,12.60
2006,07,19,00,24,12.50
2006,07,19,00,25,12.50
2006,07,19,00,26,12.50
2006,07,19,00,27,12.50
2006,07,19,00,28,12.40
2006,07,19,00,29,12.40
2006,07,19,00,30,12.40
2006,07,19,00,31,12.30
2006,07,19,00,32,12.30
2006,07,19,00,33,12.30
2006,07,19,00,34,12.20
2006,07,19,00,35,12.10
2006,07,19,00,36,12.00
2006,07,19,00,37,11.90
2006,07,19,00,38,11.80
2006,07,19,00,39,11.80
2006,07,19,00,40,11.70
2006,07,19,00,41,11.70
2006,07,19,00,42,11.60
2006,07,19,00,43,11.60
2006,07,19,00,44,11.60
2006,07,19,00,45,11.70
2006,07,19,00,46,11.70
2006,07,19,00,47,11.70
2006,07,19,00,48,11.80
2006,07,19,00,49,11.80
2006,07,19,00,50,11.80
2006,07,19,00,51,11.80
2006,07,19,00,52,11.80
2006,07,19,00,53,11.80
2006,07,19,00,54,11.80
2006,07,19,00,55,11.80
2006,07,19,00,56,11.80
2006,07,19,00,57,11.80
2006,07,19,00,58,11.80
2006,07,19,00,59,11.80
2006,07,19,01,00,11.80
2006,07,19,01,01,11.80
2006,07,19,01,02,11.80
2006,07,19,01,03,11.80
2006,07,19,01,04,11.80
2006,07,19,01,05,11.80
2006,07,19,01,06,11.70
2006,07,19,01,07,11.70
2006,07,19,01,08,11.70
2006,07,19,01,09,11.60
2006,07,19,01,10,11.60
2006,07,19,01,11,11.60
2006,07,19,01,12,11.60
2006,07,19,01,13,11.60
2006,07,19,01,14,11.60
2006,07,19,01,15,11.60
2006,07,19,01,16,11.60
2006,07,19,01,17,11.60
2006,07,19,01,18,11.60
2006,07,19,01,19,11.60
2006,07,19,01,20,11.60
2006,07,19,01,21,11.60
2006,07,19,01,22,11.60
2006,07,19,01,23,11.60
2006,07,19,01,24,11.60
2006,07,19,01,25,11.60
2006,07,19,01,26,11.60
2006,07,19,01,27,11.60
2006,07,19,01,28,11.60
2006,07,19,01,29,11.60
2006,07,19,01,30,11.60
2006,07,19,01,31,11.60
2006,07,19,01,32,11.60
2006,07,19,01,33,11.60
2006,07,19,01,34,11.60
2006,07,19,01,35,11.60
2006,07,19,01,36,11.50
2006,07,19,01,37,11.40
2006,07,19,01,38,11.40
2006,07,19,01,39,11.40
2006,07,19,01,40,11.30
2006,07,19,01,41,11.30
2006,07,19,01,42,11.20
2006,07,19,01,43,11.20
2006,07,19,01,44,11.10
2006,07,19,01,45,11.10
2006,07,19,01,46,11.10
2006,07,19,01,47,11.10
2006,07,19,01,48,11.10
2006,07,19,01,49,11.00
2006,07,19,01,50,10.90
2006,07,19,01,51,10.90
2006,07,19,01,52,10.90
2006,07,19,01,53,10.80
2006,07,19,01,54,10.80
2006,07,19,01,55,10.70
2006,07,19,01,56,10.70
2006,07,19,01,57,10.60
2006,07,19,01,58,10.60
2006,07,19,01,59,10.60
2006,07,19,02,00,10.60
2006,07,19,02,01,10.60
2006,07,19,02,02,10.60
2006,07,19,02,03,10.60
2006,07,19,02,04,10.60
2006,07,19,02,05,10.60
2006,07,19,02,06,10.70
2006,07,19,02,07,10.70
2006,07,19,02,08,10.80
2006,07,19,02,09,10.90
2006,07,19,02,10,10.90
2006,07,19,02,11,10.90
2006,07,19,02,12,11.00
2006,07,19,02,13,11.10
2006,07,19,02,14,11.10
2006,07,19,02,15,11.10
2006,07,19,02,16,11.10
2006,07,19,02,17,11.10
2006,07,19,02,18,11.10
2006,07,19,02,19,11.10
2006,07,19,02,20,11.10
2006,07,19,02,21,11.10
2006,07,19,02,22,11.10
2006,07,19,02,23,11.00
2006,07,19,02,24,10.90
2006,07,19,02,25,10.90
2006,07,19,02,26,10.90
2006,07,19,02,27,10.80
2006,07,19,02,28,10.80
2006,07,19,02,29,10.70
2006,07,19,02,30,10.70
2006,07,19,02,31,10.70
2006,07,19,02,32,10.60
2006,07,19,02,33,10.60
2006,07,19,02,34,10.60
2006,07,19,02,35,10.60
2006,07,19,02,36,10.60
2006,07,19,02,37,10.60
2006,07,19,02,38,10.60
2006,07,19,02,39,10.60
2006,07,19,02,40,10.60
2006,07,19,02,41,10.50
2006,07,19,02,42,10.40
2006,07,19,02,43,10.50
2006,07,19,02,44,10.60
2006,07,19,02,45,10.60
2006,07,19,02,46,10.60
2006,07,19,02,47,10.60
2006,07,19,02,48,10.60
2006,07,19,02,49,10.60
2006,07,19,02,50,10.60
2006,07,19,02,51,10.60
2006,07,19,02,52,10.60
2006,07,19,02,53,10.60
2006,07,19,02,54,10.60
2006,07,19,02,55,10.60
2006,07,19,02,56,10.60
2006,07,19,02,57,10.60
2006,07,19,02,58,10.60
2006,07,19,02,59,10.60
2006,07,19,03,00,10.60
2006,07,19,03,01,10.60
2006,07,19,03,02,10.60
2006,07,19,03,03,10.60
2006,07,19,03,04,10.60
2006,07,19,03,05,10.60
2006,07,19,03,06,10.50
2006,07,19,03,07,10.40
2006,07,19,03,08,10.40
2006,07,19,03,09,10.40
2006,07,19,03,10,10.30
2006,07,19,03,11,10.30
2006,07,19,03,12,10.30
2006,07,19,03,13,10.30
2006,07,19,03,14,10.30
2006,07,19,03,15,10.30
2006,07,19,03,16,10.20
2006,07,19,03,17,10.20
2006,07,19,03,18,10.10
2006,07,19,03,19,10.00
2006,07,19,03,20,9.90
2006,07,19,03,21,9.90
2006,07,19,03,22,9.90
2006,07,19,03,23,9.80
2006,07,19,03,24,9.80
2006,07,19,03,25,9.80
2006,07,19,03,26,9.70
2006,07,19,03,27,9.70
2006,07,19,03,28,9.70
2006,07,19,03,29,9.70
2006,07,19,03,30,9.70
2006,07,19,03,31,9.70
2006,07,19,03,32,9.70
2006,07,19,03,33,9.70
2006,07,19,03,34,9.70
2006,07,19,03,35,9.70
2006,07,19,03,36,9.70
2006,07,19,03,37,9.70
2006,07,19,03,38,9.70
2006,07,19,03,39,9.60
2006,07,19,03,40,9.60
2006,07,19,03,41,9.60
2006,07,19,03,42,9.60
2006,07,19,03,43,9.60
2006,07,19,03,44,9.60
2006,07,19,03,45,9.70
2006,07,19,03,46,9.70
2006,07,19,03,47,9.70
2006,07,19,03,48,9.70
2006,07,19,03,49,9.70
2006,07,19,03,50,9.70
2006,07,19,03,51,9.70
2006,07,19,03,52,9.70
2006,07,19,03,53,9.70
2006,07,19,03,54,9.70
2006,07,19,03,55,9.70
2006,07,19,03,56,9.70
2006,07,19,03,57,9.70
2006,07,19,03,58,9.70
2006,07,19,03,59,9.70
2006,07,19,04,00,9.70
2006,07,19,04,01,9.70
2006,07,19,04,02,9.70
2006,07,19,04,03,9.70
2006,07,19,04,04,9.70
2006,07,19,04,05,9.70
2006,07,19,04,06,9.70
2006,07,19,04,07,9.70
2006,07,19,04,08,9.70
2006,07,19,04,09,9.70
2006,07,19,04,10,9.70
2006,07,19,04,11,9.70
2006,07,19,04,12,9.70
2006,07,19,04,13,9.70
2006,07,19,04,14,9.70
2006,07,19,04,15,9.70
2006,07,19,04,16,9.70
2006,07,19,04,17,9.70
2006,07,19,04,18,9.70
2006,07,19,04,19,9.70
2006,07,19,04,20,9.70
2006,07,19,04,21,9.70
2006,07,19,04,22,9.70
2006,07,19,04,23,9.70
2006,07,19,04,24,9.70
2006,07,19,04,25,9.70
2006,07,19,04,26,9.60
2006,07,19,04,27,9.60
2006,07,19,04,28,9.50
2006,07,19,04,29,9.50
2006,07,19,04,30,9.40
2006,07,19,04,31,9.40
2006,07,19,04,32,9.40
2006,07,19,04,33,9.30
2006,07,19,04,34,9.30
2006,07,19,04,35,9.30
2006,07,19,04,36,9.30
2006,07,19,04,37,9.30
2006,07,19,04,38,9.20
2006,07,19,04,39,9.20
2006,07,19,04,40,9.20
2006,07,19,04,41,9.20
2006,07,19,04,42,9.20
2006,07,19,04,43,9.20
2006,07,19,04,44,9.20
2006,07,19,04,45,9.20
2006,07,19,04,46,9.20
2006,07,19,04,47,9.20
2006,07,19,04,48,9.20
2006,07,19,04,49,9.20
2006,07,19,04,50,9.10
2006,07,19,04,51,9.10
2006,07,19,04,52,9.10
2006,07,19,04,53,9.10
2006,07,19,04,54,9.10
2006,07,19,04,55,9.10
2006,07,19,04,56,9.10
2006,07,19,04,57,9.10
2006,07,19,04,58,9.00
2006,07,19,04,59,9.00
2006,07,19,05,00,9.00
2006,07,19,05,01,9.00
2006,07,19,05,02,9.00
2006,07,19,05,03,9.10
2006,07,19,05,04,9.10
2006,07,19,05,05,9.10
2006,07,19,05,06,9.10
2006,07,19,05,07,9.10
2006,07,19,05,08,9.10
2006,07,19,05,09,9.10
2006,07,19,05,10,9.10
2006,07,19,05,11,9.10
2006,07,19,05,12,9.10
2006,07,19,05,13,9.10
2006,07,19,05,14,9.10
2006,07,19,05,15,9.10
2006,07,19,05,16,9.10
2006,07,19,05,17,9.00
2006,07,19,05,18,9.00
2006,07,19,05,19,9.00
2006,07,19,05,20,9.00
2006,07,19,05,21,9.00
2006,07,19,05,22,9.10
2006,07,19,05,23,9.10
2006,07,19,05,24,9.20
2006,07,19,05,25,9.20
2006,07,19,05,26,9.20
2006,07,19,05,27,9.20
2006,07,19,05,28,9.20
2006,07,19,05,29,9.20
2006,07,19,05,30,9.20
2006,07,19,05,31,9.20
2006,07,19,05,32,9.30
2006,07,19,05,33,9.40
2006,07,19,05,34,9.40
2006,07,19,05,35,9.40
2006,07,19,05,36,9.50
2006,07,19,05,37,9.50
2006,07,19,05,38,9.50
2006,07,19,05,39,9.50
2006,07,19,05,40,9.60
2006,07,19,05,41,9.60
2006,07,19,05,42,9.60
2006,07,19,05,43,9.70
2006,07,19,05,44,9.70
2006,07,19,05,45,9.70
2006,07,19,05,46,9.70
2006,07,19,05,47,9.70
2006,07,19,05,48,9.70
2006,07,19,05,49,9.70
2006,07,19,05,50,9.70
2006,07,19,05,51,9.70
2006,07,19,05,52,9.70
2006,07,19,05,53,9.70
2006,07,19,05,54,9.70
2006,07,19,05,55,9.80
2006,07,19,05,56,9.80
2006,07,19,05,57,9.80
2006,07,19,05,58,9.80
2006,07,19,05,59,9.80
2006,07,19,06,00,9.80
2006,07,19,06,01,9.80
2006,07,19,06,02,9.80
2006,07,19,06,03,9.80
2006,07,19,06,04,9.90
2006,07,19,06,05,9.90
2006,07,19,06,06,9.90
2006,07,19,06,07,9.90
2006,07,19,06,08,9.90
2006,07,19,06,09,10.00
2006,07,19,06,10,10.10
2006,07,19,06,11,10.10
2006,07,19,06,12,10.20
2006,07,19,06,13,10.20
2006,07,19,06,14,10.20
2006,07,19,06,15,10.30
2006,07,19,06,16,10.30
2006,07,19,06,17,10.30
2006,07,19,06,18,10.40
2006,07,19,06,19,10.40
2006,07,19,06,20,10.40
2006,07,19,06,21,10.40
2006,07,19,06,22,10.40
2006,07,19,06,23,10.40
2006,07,19,06,24,10.40
2006,07,19,06,25,10.40
2006,07,19,06,26,10.40
2006,07,19,06,27,10.40
2006,07,19,06,28,10.40
2006,07,19,06,29,10.30
2006,07,19,06,30,10.30
2006,07,19,06,31,10.30
2006,07,19,06,32,10.30
2006,07,19,06,33,10.30
2006,07,19,06,34,10.30
2006,07,19,06,35,10.30
2006,07,19,06,36,10.30
2006,07,19,06,37,10.40
2006,07,19,06,38,10.40
2006,07,19,06,39,10.50
2006,07,19,06,40,10.60
2006,07,19,06,41,10.70
2006,07,19,06,42,10.80
2006,07,19,06,43,10.80
2006,07,19,06,44,10.80
2006,07,19,06,45,10.80
2006,07,19,06,46,10.70
2006,07,19,06,47,10.70
2006,07,19,06,48,10.70
2006,07,19,06,49,10.70
2006,07,19,06,50,10.60
2006,07,19,06,51,10.60
2006,07,19,06,52,10.60
2006,07,19,06,53,10.60
2006,07,19,06,54,10.70
2006,07,19,06,55,10.70
2006,07,19,06,56,10.70
2006,07,19,06,57,10.80
2006,07,19,06,58,10.80
2006,07,19,06,59,10.90
2006,07,19,07,00,10.90
2006,07,19,07,01,10.90
2006,07,19,07,02,11.00
2006,07,19,07,03,11.10
2006,07,19,07,04,11.10
2006,07,19,07,05,11.20
2006,07,19,07,06,11.20
2006,07,19,07,07,11.30
2006,07,19,07,08,11.30
2006,07,19,07,09,11.30
2006,07,19,07,10,11.30
2006,07,19,07,11,11.30
2006,07,19,07,12,11.30
2006,07,19,07,13,11.40
2006,07,19,07,14,11.40
2006,07,19,07,15,11.40
2006,07,19,07,16,11.40
2006,07,19,07,17,11.40
2006,07,19,07,18,11.40
2006,07,19,07,19,11.50
2006,07,19,07,20,11.60
2006,07,19,07,21,11.60
2006,07,19,07,22,11.60
2006,07,19,07,23,11.60
2006,07,19,07,24,11.60
2006,07,19,07,25,11.70
2006,07,19,07,26,11.70
2006,07,19,07,27,11.80
2006,07,19,07,28,11.80
2006,07,19,07,29,11.80
2006,07,19,07,30,11.80
2006,07,19,07,31,11.90
2006,07,19,07,32,11.90
2006,07,19,07,33,12.00
2006,07,19,07,34,12.10
2006,07,19,07,35,12.10
2006,07,19,07,36,12.20
2006,07,19,07,37,12.30
2006,07,19,07,38,12.40
2006,07,19,07,39,12.50
2006,07,19,07,40,12.70
2006,07,19,07,41,12.80
2006,07,19,07,42,12.80
2006,07,19,07,43,12.90
2006,07,19,07,44,13.00
2006,07,19,07,45,13.10
2006,07,19,07,46,13.20
2006,07,19,07,47,13.30
2006,07,19,07,48,13.30
2006,07,19,07,49,13.40
2006,07,19,07,50,13.40
2006,07,19,07,51,13.40
2006,07,19,07,52,13.50
2006,07,19,07,53,13.50
2006,07,19,07,54,13.50
2006,07,19,07,55,13.60
2006,07,19,07,56,13.60
2006,07,19,07,57,13.60
2006,07,19,07,58,13.60
2006,07,19,07,59,13.70
2006,07,19,08,00,13.70
2006,07,19,08,01,13.80
2006,07,19,08,02,13.80
2006,07,19,08,03,13.90
2006,07,19,08,04,14.00
2006,07,19,08,05,14.00
2006,07,19,08,06,14.10
2006,07,19,08,07,14.10
2006,07,19,08,08,14.20
2006,07,19,08,09,14.30
2006,07,19,08,10,14.40
2006,07,19,08,11,14.50
2006,07,19,08,12,14.70
2006,07,19,08,13,14.80
2006,07,19,08,14,14.90
2006,07,19,08,15,15.00
2006,07,19,08,16,15.10
2006,07,19,08,17,15.20
2006,07,19,08,18,15.30
2006,07,19,08,19,15.30
2006,07,19,08,20,15.40
2006,07,19,08,21,15.40
2006,07,19,08,22,15.50
2006,07,19,08,23,15.50
2006,07,19,08,24,15.50
2006,07,19,08,25,15.50
2006,07,19,08,26,15.50
2006,07,19,08,27,15.60
2006,07,19,08,28,15.60
2006,07,19,08,29,15.60
2006,07,19,08,30,15.60
2006,07,19,08,31,15.60
2006,07,19,08,32,15.60
2006,07,19,08,33,15.60
2006,07,19,08,34,15.60
2006,07,19,08,35,15.70
2006,07,19,08,36,15.70
2006,07,19,08,37,15.80
2006,07,19,08,38,15.80
2006,07,19,08,39,15.90
2006,07,19,08,40,15.90
2006,07,19,08,41,15.90
2006,07,19,08,42,15.80
2006,07,19,08,43,15.70
2006,07,19,08,44,15.60
2006,07,19,08,45,15.60
2006,07,19,08,46,15.60
2006,07,19,08,47,15.60
2006,07,19,08,48,15.60
2006,07,19,08,49,15.60
2006,07,19,08,50,15.50
2006,07,19,08,51,15.50
2006,07,19,08,52,15.50
2006,07,19,08,53,15.50
2006,07,19,08,54,15.50
2006,07,19,08,55,15.50
2006,07,19,08,56,15.40
2006,07,19,08,57,15.40
2006,07,19,08,58,15.30
2006,07,19,08,59,15.30
2006,07,19,09,00,15.30
2006,07,19,09,01,15.30
2006,07,19,09,02,15.30
2006,07,19,09,03,15.20
2006,07,19,09,04,15.20
2006,07,19,09,05,15.10
2006,07,19,09,06,15.10
2006,07,19,09,07,15.00
2006,07,19,09,08,14.90
2006,07,19,09,09,14.80
2006,07,19,09,10,14.70
2006,07,19,09,11,14.70
2006,07,19,09,12,14.60
2006,07,19,09,13,14.60
2006,07,19,09,14,14.70
2006,07,19,09,15,14.70
2006,07,19,09,16,14.70
2006,07,19,09,17,14.60
2006,07,19,09,18,14.60
2006,07,19,09,19,14.60
2006,07,19,09,20,14.60
2006,07,19,09,21,14.60
2006,07,19,09,22,14.60
2006,07,19,09,23,14.60
2006,07,19,09,24,14.60
2006,07,19,09,25,14.60
2006,07,19,09,26,14.60
2006,07,19,09,27,14.60
2006,07,19,09,28,14.60
2006,07,19,09,29,14.60
2006,07,19,09,30,14.60
2006,07,19,09,31,14.70
2006,07,19,09,32,14.70
2006,07,19,09,33,14.80
2006,07,19,09,34,14.80
2006,07,19,09,35,14.80
2006,07,19,09,36,14.80
2006,07,19,09,37,14.80
2006,07,19,09,38,14.80
2006,07,19,09,39,14.80
2006,07,19,09,40,14.80
2006,07,19,09,41,14.80
2006,07,19,09,42,14.80
2006,07,19,09,43,14.80
2006,07,19,09,44,14.80
2006,07,19,09,45,14.80
2006,07,19,09,46,14.80
2006,07,19,09,47,14.80
2006,07,19,09,48,14.80
2006,07,19,09,49,14.80
2006,07,19,09,50,14.80
2006,07,19,09,51,14.90
2006,07,19,09,52,14.90
2006,07,19,09,53,14.90
2006,07,19,09,54,14.90
2006,07,19,09,55,14.90
2006,07,19,09,56,14.90
2006,07,19,09,57,14.90
2006,07,19,09,58,14.90
2006,07,19,09,59,14.90
2006,07,19,10,00,14.90
2006,07,19,10,01,14.90
2006,07,19,10,02,14.90
2006,07,19,10,03,15.00
2006,07,19,10,04,15.00
2006,07,19,10,05,15.00
2006,07,19,10,06,15.10
2006,07,19,10,07,15.10
2006,07,19,10,08,15.10
2006,07,19,10,09,15.10
2006,07,19,10,10,15.10
2006,07,19,10,11,15.10
2006,07,19,10,12,15.10
2006,07,19,10,13,15.10
2006,07,19,10,14,15.10
2006,07,19,10,15,15.10
2006,07,19,10,16,15.00
2006,07,19,10,17,15.00
2006,07,19,10,18,15.10
2006,07,19,10,19,15.10
2006,07,19,10,20,15.10
2006,07,19,10,21,15.20
2006,07,19,10,22,15.20
2006,07,19,10,23,15.20
2006,07,19,10,24,15.20
2006,07,19,10,25,15.30
2006,07,19,10,26,15.30
2006,07,19,10,27,15.30
2006,07,19,10,28,15.30
2006,07,19,10,29,15.30
2006,07,19,10,30,15.30
2006,07,19,10,31,15.30
2006,07,19,10,32,15.30
2006,07,19,10,33,15.30
2006,07,19,10,34,15.30
2006,07,19,10,35,15.30
2006,07,19,10,36,15.30
2006,07,19,10,37,15.30
2006,07,19,10,38,15.30
2006,07,19,10,39,15.30
2006,07,19,10,40,15.30
2006,07,19,10,41,15.20
2006,07,19,10,42,15.20
2006,07,19,10,43,15.20
2006,07,19,10,44,15.20
2006,07,19,10,45,15.20
2006,07,19,10,46,15.20
2006,07,19,10,47,15.10
2006,07,19,10,48,15.10
2006,07,19,10,49,15.00
2006,07,19,10,50,15.00
2006,07,19,10,51,14.90
2006,07,19,10,52,14.90
2006,07,19,10,53,14.90
2006,07,19,10,54,14.90
2006,07,19,10,55,15.00
2006,07,19,10,56,15.00
2006,07,19,10,57,15.00
2006,07,19,10,58,15.10
2006,07,19,10,59,15.10
2006,07,19,11,00,15.10
2006,07,19,11,01,15.10
2006,07,19,11,02,15.10
2006,07,19,11,03,15.10
2006,07,19,11,04,15.20
2006,07,19,11,05,15.20
2006,07,19,11,06,15.20
2006,07,19,11,07,15.20
2006,07,19,11,08,15.20
2006,07,19,11,09,15.20
2006,07,19,11,10,15.30
2006,07,19,11,11,15.30
2006,07,19,11,12,15.30
2006,07,19,11,13,15.30
2006,07,19,11,14,15.30
2006,07,19,11,15,15.30
2006,07,19,11,16,15.40
2006,07,19,11,17,15.40
2006,07,19,11,18,15.40
2006,07,19,11,19,15.40
2006,07,19,11,20,15.40
2006,07,19,11,21,15.40
2006,07,19,11,22,15.40
2006,07,19,11,23,15.50
2006,07,19,11,24,15.50
2006,07,19,11,25,15.60
2006,07,19,11,26,15.80
2006,07,19,11,27,15.80
2006,07,19,11,28,15.90
2006,07,19,11,29,16.00
2006,07,19,11,30,16.10
2006,07,19,11,31,16.20
2006,07,19,11,32,16.30
2006,07,19,11,33,16.30
2006,07,19,11,34,16.30
2006,07,19,11,35,16.30
2006,07,19,11,36,16.40
2006,07,19,11,37,16.40
2006,07,19,11,38,16.40
2006,07,19,11,39,16.40
2006,07,19,11,40,16.30
2006,07,19,11,41,16.20
2006,07,19,11,42,16.10
2006,07,19,11,43,16.10
2006,07,19,11,44,16.10
2006,07,19,11,45,16.20
2006,07,19,11,46,16.30
2006,07,19,11,47,16.30
2006,07,19,11,48,16.40
2006,07,19,11,49,16.40
2006,07,19,11,50,16.40
2006,07,19,11,51,16.40
2006,07,19,11,52,16.40
2006,07,19,11,53,16.30
2006,07,19,11,54,16.30
2006,07,19,11,55,16.20
2006,07,19,11,56,16.10
2006,07,19,11,57,16.00
2006,07,19,11,58,15.90
2006,07,19,11,59,15.80
2006,07,19,12,00,15.70
2006,07,19,12,01,15.70
2006,07,19,12,02,15.60
2006,07,19,12,03,15.60
2006,07,19,12,04,15.60
2006,07,19,12,05,15.60
2006,07,19,12,06,15.70
2006,07,19,12,07,15.70
2006,07,19,12,08,15.70
2006,07,19,12,09,15.80
2006,07,19,12,10,15.80
2006,07,19,12,11,15.80
2006,07,19,12,12,15.80
2006,07,19,12,13,15.80
2006,07,19,12,14,15.80
2006,07,19,12,15,15.90
2006,07,19,12,16,16.00
2006,07,19,12,17,16.10
2006,07,19,12,18,16.10
2006,07,19,12,19,16.10
2006,07,19,12,20,16.10
2006,07,19,12,21,16.10
2006,07,19,12,22,16.10
2006,07,19,12,23,16.10
2006,07,19,12,24,16.10
2006,07,19,12,25,16.10
2006,07,19,12,26,16.10
2006,07,19,12,27,16.10
2006,07,19,12,28,16.20
2006,07,19,12,29,16.20
2006,07,19,12,30,16.30
2006,07,19,12,31,16.30
2006,07,19,12,32,16.30
2006,07,19,12,33,16.30
2006,07,19,12,34,16.30
2006,07,19,12,35,16.30
2006,07,19,12,36,16.30
2006,07,19,12,37,16.30
2006,07,19,12,38,16.40
2006,07,19,12,39,16.40
2006,07,19,12,40,16.40
2006,07,19,12,41,16.40
2006,07,19,12,42,16.40
2006,07,19,12,43,16.40
2006,07,19,12,44,16.40
2006,07,19,12,45,16.40
2006,07,19,12,46,16.40
2006,07,19,12,47,16.40
2006,07,19,12,48,16.40
2006,07,19,12,49,16.40
2006,07,19,12,50,16.40
2006,07,19,12,51,16.50
2006,07,19,12,52,16.60
2006,07,19,12,53,16.60
2006,07,19,12,54,16.70
2006,07,19,12,55,16.70
2006,07,19,12,56,16.70
2006,07,19,12,57,16.80
2006,07,19,12,58,16.90
2006,07,19,12,59,17.00
2006,07,19,13,00,17.10
2006,07,19,13,01,17.20
2006,07,19,13,02,17.30
2006,07,19,13,03,17.40
2006,07,19,13,04,17.40
2006,07,19,13,05,17.40
2006,07,19,13,06,17.40
2006,07,19,13,07,17.30
2006,07,19,13,08,17.30
2006,07,19,13,09,17.30
2006,07,19,13,10,17.30
2006,07,19,13,11,17.40
2006,07,19,13,12,17.50
2006,07,19,13,13,17.60
2006,07,19,13,14,17.70
2006,07,19,13,15,17.70
2006,07,19,13,16,17.70
2006,07,19,13,17,17.60
2006,07,19,13,18,17.60
2006,07,19,13,19,17.50
2006,07,19,13,20,17.50
2006,07,19,13,21,17.50
2006,07,19,13,22,17.50
2006,07,19,13,23,17.50
2006,07,19,13,24,17.50
2006,07,19,13,25,17.60
2006,07,19,13,26,17.60
2006,07,19,13,27,17.60
2006,07,19,13,28,17.60
2006,07,19,13,29,17.60
2006,07,19,13,30,17.60
2006,07,19,13,31,17.60
2006,07,19,13,32,17.60
2006,07,19,13,33,17.70
2006,07,19,13,34,17.70
2006,07,19,13,35,17.70
2006,07,19,13,36,17.70
2006,07,19,13,37,17.80
2006,07,19,13,38,17.80
2006,07,19,13,39,17.80
2006,07,19,13,40,17.80
2006,07,19,13,41,17.90
2006,07,19,13,42,17.90
2006,07,19,13,43,18.10
2006,07,19,13,44,18.20
2006,07,19,13,45,18.30
2006,07,19,13,46,18.40
2006,07,19,13,47,18.40
2006,07,19,13,48,18.40
2006,07,19,13,49,18.50
2006,07,19,13,50,18.50
2006,07,19,13,51,18.50
2006,07,19,13,52,18.50
2006,07,19,13,53,18.50
2006,07,19,13,54,18.50
2006,07,19,13,55,18.50
2006,07,19,13,56,18.50
2006,07,19,13,57,18.60
2006,07,19,13,58,18.50
2006,07,19,13,59,18.50
2006,07,19,14,00,18.60
2006,07,19,14,01,18.60
2006,07,19,14,02,18.70
2006,07,19,14,03,18.70
2006,07,19,14,04,18.70
2006,07,19,14,05,18.60
2006,07,19,14,06,18.60
2006,07,19,14,07,18.50
2006,07,19,14,08,18.40
2006,07,19,14,09,18.40
2006,07,19,14,10,18.30
2006,07,19,14,11,18.20
2006,07,19,14,12,18.20
2006,07,19,14,13,18.20
2006,07,19,14,14,18.20
2006,07,19,14,15,18.20
2006,07,19,14,16,18.10
2006,07,19,14,17,18.00
2006,07,19,14,18,17.90
2006,07,19,14,19,17.90
2006,07,19,14,20,17.80
2006,07,19,14,21,17.80
2006,07,19,14,22,17.80
2006,07,19,14,23,17.80
2006,07,19,14,24,17.70
2006,07,19,14,25,17.70
2006,07,19,14,26,17.70
2006,07,19,14,27,17.70
2006,07,19,14,28,17.60
2006,07,19,14,29,17.60
2006,07,19,14,30,17.60
2006,07,19,14,31,17.60
2006,07,19,14,32,17.60
2006,07,19,14,33,17.60
2006,07,19,14,34,17.60
2006,07,19,14,35,17.60
2006,07,19,14,36,17.60
2006,07,19,14,37,17.70
2006,07,19,14,38,17.70
2006,07,19,14,39,17.70
2006,07,19,14,40,17.70
2006,07,19,14,41,17.80
2006,07,19,14,42,17.80
2006,07,19,14,43,17.80
2006,07,19,14,44,17.80
2006,07,19,14,45,17.80
2006,07,19,14,46,17.90
2006,07,19,14,47,17.90
2006,07,19,14,48,17.90
2006,07,19,14,49,17.90
2006,07,19,14,50,17.90
2006,07,19,14,51,17.90
2006,07,19,14,52,17.90
2006,07,19,14,53,17.90
2006,07,19,14,54,17.90
2006,07,19,14,55,17.90
2006,07,19,14,56,17.90
2006,07,19,14,57,17.90
2006,07,19,14,58,18.00
2006,07,19,14,59,18.10
2006,07,19,15,00,18.10
2006,07,19,15,01,18.20
2006,07,19,15,02,18.20
2006,07,19,15,03,18.10
2006,07,19,15,04,18.10
2006,07,19,15,05,18.10
2006,07,19,15,06,18.20
2006,07,19,15,07,18.20
2006,07,19,15,08,18.20
2006,07,19,15,09,18.30
2006,07,19,15,10,18.40
2006,07,19,15,11,18.40
2006,07,19,15,12,18.40
2006,07,19,15,13,18.40
2006,07,19,15,14,18.30
2006,07,19,15,15,18.30
2006,07,19,15,16,18.30
2006,07,19,15,17,18.40
2006,07,19,15,18,18.50
2006,07,19,15,19,18.70
2006,07,19,15,20,18.80
2006,07,19,15,21,18.90
2006,07,19,15,22,18.90
2006,07,19,15,23,18.90
2006,07,19,15,24,18.90
2006,07,19,15,25,18.90
2006,07,19,15,26,18.90
2006,07,19,15,27,18.90
2006,07,19,15,28,18.90
2006,07,19,15,29,18.90
2006,07,19,15,30,18.90
2006,07,19,15,31,18.90
2006,07,19,15,32,18.80
2006,07,19,15,33,18.80
2006,07,19,15,34,18.90
2006,07,19,15,35,18.90
2006,07,19,15,36,18.90
2006,07,19,15,37,18.90
2006,07,19,15,38,18.90
2006,07,19,15,39,19.00
2006,07,19,15,40,19.10
2006,07,19,15,41,19.20
2006,07,19,15,42,19.40
2006,07,19,15,43,19.50
2006,07,19,15,44,19.60
2006,07,19,15,45,19.80
2006,07,19,15,46,19.90
2006,07,19,15,47,19.90
2006,07,19,15,48,19.90
2006,07,19,15,49,20.10
2006,07,19,15,50,20.20
2006,07,19,15,51,20.20
2006,07,19,15,52,20.20
2006,07,19,15,53,20.30
2006,07,19,15,54,20.40
2006,07,19,15,55,20.50
2006,07,19,15,56,20.50
2006,07,19,15,57,20.50
2006,07,19,15,58,20.50
2006,07,19,15,59,20.50
2006,07,19,16,00,20.50
2006,07,19,16,01,20.50
2006,07,19,16,02,20.50
2006,07,19,16,03,20.50
2006,07,19,16,04,20.60
2006,07,19,16,05,20.70
2006,07,19,16,06,20.80
2006,07,19,16,07,21.00
2006,07,19,16,08,21.10
2006,07,19,16,09,21.10
2006,07,19,16,10,21.20
2006,07,19,16,11,21.20
2006,07,19,16,12,21.20
2006,07,19,16,13,21.20
2006,07,19,16,14,21.20
2006,07,19,16,15,21.20
2006,07,19,16,16,21.20
2006,07,19,16,17,21.20
2006,07,19,16,18,21.10
2006,07,19,16,19,21.10
2006,07,19,16,20,21.10
2006,07,19,16,21,21.10
2006,07,19,16,22,21.10
2006,07,19,16,23,21.10
2006,07,19,16,24,21.10
2006,07,19,16,25,21.10
2006,07,19,16,26,21.10
2006,07,19,16,27,21.00
2006,07,19,16,28,20.90
2006,07,19,16,29,20.90
2006,07,19,16,30,20.80
2006,07,19,16,31,20.70
2006,07,19,16,32,20.50
2006,07,19,16,33,20.30
2006,07,19,16,34,20.10
2006,07,19,16,35,20.00
2006,07,19,16,36,19.90
2006,07,19,16,37,19.80
2006,07,19,16,38,19.70
2006,07,19,16,39,19.60
2006,07,19,16,40,19.50
2006,07,19,16,41,19.50
2006,07,19,16,42,19.50
2006,07,19,16,43,19.60
2006,07,19,16,44,19.60
2006,07,19,16,45,19.60
2006,07,19,16,46,19.60
2006,07,19,16,47,19.60
2006,07,19,16,48,19.60
2006,07,19,16,49,19.60
2006,07,19,16,50,19.50
2006,07,19,16,51,19.30
2006,07,19,16,52,19.20
2006,07,19,16,53,19.00
2006,07,19,16,54,18.80
2006,07,19,16,55,18.60
2006,07,19,16,56,18.50
2006,07,19,16,57,18.30
2006,07,19,16,58,18.20
2006,07,19,16,59,18.10
2006,07,19,17,00,18.10
2006,07,19,17,01,18.00
2006,07,19,17,02,18.00
2006,07,19,17,03,18.10
2006,07,19,17,04,18.10
2006,07,19,17,05,18.10
2006,07,19,17,06,18.20
2006,07,19,17,07,18.40
2006,07,19,17,08,18.50
2006,07,19,17,09,18.50
2006,07,19,17,10,18.50
2006,07,19,17,11,18.60
2006,07,19,17,12,18.60
2006,07,19,17,13,18.70
2006,07,19,17,14,18.80
2006,07,19,17,15,18.90
2006,07,19,17,16,19.00
2006,07,19,17,17,19.10
2006,07,19,17,18,19.10
2006,07,19,17,19,19.10
2006,07,19,17,20,19.10
2006,07,19,17,21,19.10
2006,07,19,17,22,19.20
2006,07,19,17,23,19.30
2006,07,19,17,24,19.40
2006,07,19,17,25,19.50
2006,07,19,17,26,19.60